Flag for U.S.A. Weather past 2 weeks in Lincoln, Nebraska, U.S.A.

Now
92 °F

Sunny.


Feels Like: 102 °F
Forecast: 74 / 94 °F
Wind: 8 mph from North

Location: Lincoln Municipal Airport

Current Time: Jul 25, 2014 at 8:20:08 PM

Latest Report: Jul 25, 2014 at 7:54 PM


Visibility: 10 mi

Pressure: 29.70 "Hg

Humidity: 56%

Dew point: 74 °F

Location of LincolnLocation

Historic Weather in Lincoln — Graph

°F

Lincoln temperature yesterday

Maximum temperature yesterday: 89 °F (at 3:54 PM)
Minimum temperature yesterday: 68 °F (at 12:54 AM)
Average temperature yesterday: 78 °F

Past Weeks' High & Low Weather Summary

 TemperatureHumidityPressure
High101 °F (Jul 21, 5:54 PM)90% (Jul 13, 2:54 AM)30.24 "Hg (Jul 13, 2:54 AM)
Low49 °F (Jul 16, 5:54 AM)32% (Jul 16, 2:54 PM)29.69 "Hg (Jul 25, 1:54 PM)
Average76 °F63%29.98 "Hg
* Reported Jul 10 6:54 PM — Jul 25 6:54 PM, Lincoln, Weather by CustomWeather, © 2014

Note: Actual official high and low records may vary slightly from our data, if they occured in-between our weather recording intervals... More about our weather records

Advertising

Lincoln weather history for previous 24 hours

 ConditionsComfort  
Time TempWeatherWind HumidityBarometerVisibility
6:54 PM
Jul 25
96 °FSunny.7 mph44%29.70 "Hg10 mi
5:54 PM97 °FSunny.8 mph40%29.70 "Hg10 mi
4:54 PM97 °FSunny.9 mph40%29.70 "Hg10 mi
3:54 PM99 °FSunny.9 mph39%29.69 "Hg10 mi
2:54 PM99 °FSunny.12 mph39%29.69 "Hg10 mi
1:54 PM97 °FSunny.8 mph42%29.69 "Hg9 mi
12:54 PM94 °FSunny.8 mph44%29.69 "Hg10 mi
11:54 AM92 °FSunny.10 mph47%29.71 "Hg9 mi
10:54 AM90 °FSunny.13 mph50%29.71 "Hg9 mi
9:54 AM88 °FSunny.15 mph54%29.74 "Hg9 mi
8:54 AM85 °FSunny.17 mph61%29.71 "Hg9 mi
7:54 AM76 °FSunny.12 mph82%29.72 "Hg9 mi
6:54 AM74 °FClear.10 mph82%29.73 "Hg10 mi
5:54 AM73 °FClear.10 mph81%29.72 "Hg10 mi
4:54 AM73 °FClear.13 mph79%29.72 "Hg10 mi
3:54 AM74 °FClear.10 mph82%29.76 "Hg10 mi
2:54 AM74 °FPassing clouds.9 mph82%29.83 "Hg10 mi
1:54 AM74 °FThunderstorms. Partly cloudy.15 mph79%29.90 "Hg9 mi
12:54 AM77 °FLight rain. Passing clouds.12 mph62%29.85 "Hg10 mi
11:54 PM
Jul 24
77 °FClear.17 mph58%29.83 "Hg10 mi
10:54 PM78 °FClear.22 mph54%29.84 "Hg10 mi
9:54 PM78 °FClear.17 mph56%29.87 "Hg10 mi
8:54 PM81 °FSunny.20 mph53%29.89 "Hg10 mi
Weather by CustomWeather, © 2014

See weather overviewHow to use our weather pages